This is the latest recevied weather packets stored in our database for station/object SQ9NFI-4. If no packets are shown the sender has not sent any weather packets the latest 1 day(s).
| Time | Temp. | Humidity | Pressure | Rain* | Wind** | Luminosity | Snow |
|---|---|---|---|---|---|---|---|
| 1777999177 | 26.67° C | 18% | 1007.8 hPa | 0 mm | 2.24 m/s, 321° | 65 W/m² | - |
| 1777998877 | 26.67° C | 18% | 1007.8 hPa | 0 mm | 2.24 m/s, 205° | 75 W/m² | - |
| 1777998577 | 26.67° C | 16% | 1007.8 hPa | 0 mm | 4.92 m/s, 208° | 81 W/m² | - |
| 1777998277 | 27.22° C | 16% | 1007.8 hPa | 0 mm | 2.68 m/s, 300° | 89 W/m² | - |
| 1777997977 | 27.22° C | 14% | 1007.8 hPa | 0 mm | 2.68 m/s, 246° | 100 W/m² | - |
| 1777997677 | 27.78° C | 14% | 1007.8 hPa | 0 mm | 2.68 m/s, 303° | 109 W/m² | - |
| 1777997377 | 27.78° C | 13% | 1007.8 hPa | 0 mm | 6.71 m/s, 192° | 114 W/m² | - |
| 1777997077 | 27.78° C | 13% | 1007.8 hPa | 0 mm | 4.47 m/s, 236° | 127 W/m² | - |
| 1777996777 | 27.78° C | 14% | 1007.8 hPa | 0 mm | 1.79 m/s, 256° | 138 W/m² | - |
| 1777996477 | 27.78° C | 13% | 1007.8 hPa | 0 mm | 3.13 m/s, 207° | 143 W/m² | - |
| 1777996177 | 27.78° C | 14% | 1007.8 hPa | 0 mm | 2.68 m/s, 155° | 161 W/m² | - |
| 1777995877 | 27.78° C | 14% | 1007.8 hPa | 0 mm | 5.81 m/s, 194° | 182 W/m² | - |
| 1777995577 | 28.33° C | 14% | 1007.8 hPa | 0 mm | 5.81 m/s, 243° | 193 W/m² | - |
| 1777995277 | 28.33° C | 17% | 1007.8 hPa | 0 mm | 5.81 m/s, 175° | 208 W/m² | - |
| 1777994977 | 28.33° C | 18% | 1007.8 hPa | 0 mm | 1.79 m/s, 230° | 223 W/m² | - |
| 1777994677 | 27.78° C | 17% | 1007.8 hPa | 0 mm | 3.58 m/s, 187° | 237 W/m² | - |
| 1777994377 | 28.33° C | 19% | 1007.8 hPa | 0 mm | 3.13 m/s, 212° | 254 W/m² | - |
| 1777994077 | 28.33° C | 18% | 1007.8 hPa | 0 mm | 3.13 m/s, 267° | 264 W/m² | - |
| 1777993777 | 28.33° C | 18% | 1007.8 hPa | 0 mm | 3.58 m/s, 258° | 274 W/m² | - |
| 1777993477 | 28.33° C | 19% | 1007.8 hPa | 0 mm | 1.34 m/s, 301° | 279 W/m² | - |
| 1777993177 | 28.33° C | 17% | 1007.8 hPa | 0 mm | 4.47 m/s, 177° | 296 W/m² | - |
| 1777992877 | 28.89° C | 19% | 1007.8 hPa | 0 mm | 2.68 m/s, 161° | 320 W/m² | - |
| 1777992577 | 28.33° C | 18% | 1007.8 hPa | 0 mm | 2.68 m/s, 296° | 341 W/m² | - |
| 1777992277 | 28.33° C | 18% | 1008.1 hPa | 0 mm | 4.92 m/s, 285° | 365 W/m² | - |
| 1777991977 | 27.78° C | 17% | 1008.1 hPa | 0 mm | 2.68 m/s, 183° | 310 W/m² | - |
* Rain latest hour (hover to see other rain measurements)
** Current wind speed in m/s (hover to see current wind gust speed)